sat.trackr.live / text

‹ back to catalog

STARLINK-34290

NORAD 64929 · 2025-157AB

PAYLOAD ACTIVE UNKNOWN

§ Identity

Operator
Country
US
Launch date
2025-07-26
Launch site
AFETR
Launch vehicle
Mass (kg)
RCS (m²)

Purposes: comms

External: N2YO · Heavens-Above · Gunter

§ Orbital elements

Epoch: 2026-05-24T20:25:42.176640Z

Period
94.11 min
Inclination
53.1601°
Eccentricity
0.0001064
Mean motion
15.30199590 rev/d
Perigee alt
474.5 km
Apogee alt
475.9 km
Semi-major
6,853.4 km
B*
9.2737e-4
RAAN
351.9590°
Arg perigee
86.8510°
Mean anomaly
273.2613°
Rev number
4,778

§ Raw data

STARLINK-342901 64929U 25157AB  26144.85118260  .00027207  00000+0  92737-3 0  99962 64929  53.1601 351.9590 0001064  86.8510 273.2613 15.30199590 47781

JSON: /api/v1/satellites/64929 · /tle

For live sub-satellite position, see the globe view (requires WebGL).

§ Visibility from observer

Set your observer location to see the next 7 days of passes ≥ 10°. The values pass through the URL so the page stays shareable.

No JS? Fill the form by hand. The geolocation button needs JavaScript.